ATLAS 5 CENTAUR DEB, 46660

Orbit data source: Space-Track

ATLAS 5 CENTAUR DEB, 46660 is space debris in HEO originally from a launch on Wed, 17 Oct 2018 UTC launched from the Air Force Eastern Test Range (AFETR). Debris objects in space refer to the collection of defunct objects orbiting the Earth. Examples of debris include non-operational satellites, rocket bodies, and fragments generated from explosions, collisions, or faulty payload assembly.

Loading next visibility...
Identifier
46660, 2018-079CN
Orbit
HEO
Country
Flag of USUS
Related business
Flag of USUnited Launch Alliance/Lockheed Martin (US)
Manufacturer
ULA Decatur
Mission
Spacecraft
Bus & Motor
Unknown
Mass
Unknown
Launch date (UTC)
2018-10-17 (7 years ago)
Launch vehicle
Unknown
Launch site
Air Force Eastern Test Range (AFETR)
Object type
Payload
Rocket body
Debris
Shape & HBR
Unknown shape, 1.1 m
Radar Cross Section
RCS unknown

Expand to show TLE details & history
Last TLE update: 1 day ago

TLE from 1 day ago
0 ATLAS 5 CENTAUR DEB
1 46660U 18079CN  25287.21003789 -.00000125  00000-0  00000-0 0  9990
2 46660  12.9967  61.4330 4590547 262.5923  44.9335  1.81091688  7511
Epoch: 2025-10-14T05:02Z
TLE epoch observation values (Epoch: 2025-10-14T05:02:27.273Z)
Latitude
-0.00001°
Longitude
-37.20473°
Altitude
17,456.378 km
Speed
4.408 km/s
True Right ascension
04h 05m 38s
True Declination
0° 00' 00"
Sunlit
Object was in daylight at epoch
Visualization orbit readout
Latitude
Unknown
Longitude
Unknown
Altitude
Unknown
Speed
Unknown
Apparent Right ascension
Unknown
Apparent Declination
Unknown
Sunlit
N/A
Visualization observer readout
Local Sidereal Time
08:10:37
Azimuth
Unknown
Elevation
Unknown
Doppler factor
Unknown
Orbital elements
Apogee altitude
35,108.273 km
Perigee altitude
9,002.971 km
Semi-major axis
28,433.759 km
Eccentricity
0.45905
Inclination
12.9967°
RAAN
61.433°
Arg. of periapsis
262.5923°
True anomaly
97.54007°
Mean anomaly
44.9335°
Eccentric anomaly
69.58309°
Mean motion
0.45268 °/min
Orbital period
795.26 mins
BSTAR
0
Loading maneuver chart data...
Computing Atmospheric mass density...

Documentation

Showing up to 5 results
|